Starlink 4477

operational
NORAD ID: 53546 Int'l Des: 2022-101 Owner: SPXS Country: US Constellation: starlink
LEOCIRCULAR

Starlink 4477について

説明を読み込み中...

リアルタイム位置

3D地球を読み込み中...

次回通過

高度履歴

Altitude vs Time

uPlot chart will show altitude changes over time

軌道要素

1 53546U 22101V 25257.37297674 .00000781 00000-0 67149-4 0 9992
2 53546 53.2169 125.1683 0001366 90.2923 269.8226 15.08842815169832
Epoch: Sep 14, 2025 • Age: 23 hours

現在のステータス

高度 543.2 km
速度 7.60 km/s
衛星直下点 43.21°N, 145.9°E
打ち上げ日 Aug 19, 2022
運用期間 3 years
タイプ internet

技術仕様

分類 Payload
質量 300.00 kg
乾燥質量 290.00 kg
総質量 300.00 kg
長さ 0.20 m
直径 2.80 m
スパン 9.00 m
形状 Box + pan
製造者 SPXS
バスタイプ Starlink
フェーズステータス In Orbit
所有者/国 SPXS/US

大規模コンステレーション

Loading constellations...